Location: Unspecified
(0.0000°N, 0.0000°E)
Time: 03:45:21
(UTC+00:00)

N. Korean satellite - Pass Details

Date: 31 January 2023
Orbit: 408 x 444 km, 97.3° (Epoch: 27 January)

Event Time Altitude Azimuth Distance (km) Brightness Sun altitude
Rises 04:37:50 0° 24° (NNE) 2,379 10.1 -22.7°
Reaches altitude 10° 04:39:55 10° 33° (NNE) 1,522 9.2 -22.2°
Maximum altitude 04:42:56 35° 101° (E) 717 8.0 -21.5°
Drops below altitude 10° 04:46:00 10° 169° (SSE) 1,546 9.5 -20.8°
Sets 04:48:07 0° 178° (S) 2,422 10.4 -20.3°
